Temperature
12 12 12 12 12 12 12 12 12 12 12 11 11 11 11 11 11 11 11 11 11 11 11 11 11 11 11 11 11 10 10 10 10 10 10 10 10 10 11 11 11 11 11
12 12 12 12 12 12 12 12 12 12 11 11 11 11 11 11 11 11 11 11 11 11 11 10 11 10 10 10 10 10 10 10 10 10 10 10 10 10 10 10 10 10 10
12 12 12 12 12 12 12 12 11 11 11 11 11 11 11 11 11 10 10 10 10 10 10 10 10 10 10 10 10 10 10 10 10 10 10 10 10 10 10 10 10 9 9
12 12 12 12 11 11 11 11 11 11 11 11 10 10 10 10 10 10 10 10 10 10 10 10 10 10 10 10 9 9 9 9 9 9 9 9 9 9 9 9 9 9 9
11 11 11 11 11 11 11 11 11 11 10 10 10 10 10 10 10 10 10 10 10 10 9 9 9 9 9 9 9 9 9 9 9 9 9 9 9 9 9 9 9 9 9
11 11 11 11 11 11 11 11 10 10 10 10 10 10 10 10 10 9 9 9 9 9 9 9 9 9 9 9 9 9 9 9 9 9 8 8 9 9 9 9 9 8 8
11 11 11 11 11 11 10 10 10 10 10 9 9 9 9 9 9 9 9 9 9 9 9 9 9 9 9 9 9 9 8 8 8 8 8 8 8 8 8 8 8 8 8
11 10 10 10 10 10 10 10 10 10 9 9 9 9 9 9 9 9 9 9 9 9 9 9 9 8 8 8 8 8 8 8 8 8 8 8 8 8 8 8 8 8 8
10 10 10 10 10 10 10 10 10 9 9 9 9 9 9 9 8 8 9 9 8 9 8 8 8 8 8 8 8 8 8 8 8 8 8 8 8 7 7 7 8 7 7
10 10 10 10 10 10 10 10 9 9 9 9 9 9 9 8 8 8 8 8 8 8 8 8 8 8 8 8 8 8 8 8 8 8 7 7 7 7 7 7 7 7 7
9 10 10 9 10 9 9 9 9 9 9 9 9 9 8 8 8 8 8 8 8 8 8 8 8 8 8 8 8 8 8 8 7 7 7 7 7 7 7 7 7 7 7
9 9 9 9 9 9 9 9 9 9 9 8 8 8 8 8 8 8 8 7 7 8 8 8 8 8 8 8 8 8 8 8 7 7 7 7 7 7 7 7 7 7 6
9 9 9 9 9 9 9 9 9 9 8 8 8 8 8 8 8 8 8 7 7 7 7 8 8 8 8 8 8 8 7 7 7 7 7 7 6 6 6 6 6 6 6
9 9 9 9 9 9 9 9 8 8 8 8 8 8 8 8 8 8 7 7 7 7 7 7 7 7 7 7 7 7 7 7 7 7 6 6 6 6 6 6 6 6 6
8 8 8 8 8 8 8 8 8 8 8 8 8 8 8 7 7 7 7 7 7 6 6 7 7 7 7 7 7 7 7 7 6 6 6 6 6 6 6 6 5 5 5
8 8 8 8 8 8 8 8 8 8 8 8 8 7 7 7 7 7 7 7 7 6 6 6 6 7 7 7 6 6 6 6 6 6 6 6 6 5 5 5 5 5 5
7 7 7 7 7 8 8 7 7 7 7 7 7 7 7 7 7 7 7 6 6 6 6 6 6 6 6 6 6 6 6 6 6 5 5 5 5 5 5 5 5 5 4
7 7 7 7 7 7 7 7 7 7 7 7 7 7 7 7 7 6 6 6 6 6 6 6 6 6 6 5 5 5 5 5 5 5 5 5 5 5 4 4 4 4 4
6 6 6 6 6 6 7 7 6 6 6 6 6 6 7 6 6 6 6 6 6 6 6 5 5 5 5 5 5 5 5 5 5 5 4 4 4 4 4 4 4 4 4
6 6 6 6 6 6 6 6 6 6 6 6 6 6 6 6 6 6 6 6 5 5 5 5 5 5 5 5 4 4 4 4 4 4 4 4 4 4 4 4 3 3 3
5 5 5 5 5 5 5 5 6 6 6 6 6 6 5 6 5 5 5 5 5 5 5 5 5 4 4 4 4 4 4 4 4 4 3 4 3 3 3 3 3 3 3
4 5 5 5 5 5 5 5 5 5 5 5 5 5 5 5 5 5 5 5 5 4 4 4 4 4 4 4 4 3 3 3 3 3 3 3 3 3 3 3 3 3 2
4 4 4 4 4 4 5 5 4 4 4 4 4 4 4 4 4 4 4 4 4 4 4 4 3 3 3 3 3 3 3 2 2 2 2 2 2 2 2 2 2 2 2
3 3 3 3 4 4 4 4 4 4 4 4 4 4 4 4 4 4 4 4 3 3 3 3 3 3 3 2 2 2 2 2 2 2 1 1 2 2 2 2 2 1 1
2 2 2 2 3 3 3 3 3 3 3 3 3 3 3 3 3 3 3 3 3 3 3 3 2 2 2 2 2 1 1 1 1 1 1 1 1 1 1 1 1 1 1
1 1 2 2 2 2 2 3 3 2 2 3 3 3 3 3 3 3 2 2 2 2 2 2 2 2 1 1 1 1 1 0 0 0 0 0 0 -0 -0 0 0 -0 -0
Wind_Speed
6 6 6 6 6 7 7 7 7 7 7 7 6 6 5 5 5 5 6 8 7 6 5 5 4 4 4 5 5 5 5 5 5 6 6 6 6 6 6 6 6 7 7
7 7 6 6 6 6 6 6 7 6 6 5 5 5 5 5 5 5 5 6 7 6 5 5 4 4 4 4 4 4 4 4 4 4 4 4 5 6 5 5 5 5 5
8 7 6 6 6 7 7 6 7 6 5 5 5 5 4 4 4 4 4 4 4 5 5 4 4 3 3 3 4 4 4 4 4 4 4 4 4 4 4 4 4 3 3
9 8 6 6 7 7 7 6 6 5 5 4 4 4 3 3 3 3 3 3 3 3 3 4 3 3 3 2 2 3 3 4 4 4 3 3 3 3 3 3 3 2 2
10 8 7 7 8 7 6 6 6 6 6 5 4 3 3 3 3 3 3 3 2 2 1 2 2 2 2 1 1 1 2 3 3 3 3 3 2 2 2 2 2 1 1
9 9 7 8 8 7 6 6 7 6 5 5 4 3 2 2 2 2 2 2 2 1 1 1 1 1 1 0 0 0 1 2 2 3 2 2 1 0 0 1 1 1 2
9 8 6 8 8 7 8 8 7 7 5 5 4 2 1 1 1 1 2 2 2 1 1 2 2 2 2 1 1 0 0 1 1 1 1 0 1 1 2 2 2 2 3
10 8 8 7 8 7 8 9 8 6 4 5 4 3 2 3 2 2 2 2 2 2 2 2 3 3 2 2 1 1 1 1 1 1 1 1 2 2 3 4 4 4 3
9 9 8 7 8 7 8 9 9 8 6 5 4 3 3 3 2 2 3 3 3 2 2 2 3 3 3 3 3 2 2 3 3 3 3 3 3 4 4 5 5 6 6
9 9 9 8 7 7 8 8 8 7 8 6 5 3 2 1 2 2 3 3 3 3 3 3 3 3 3 4 3 3 4 4 4 5 5 5 5 5 5 6 6 6 6
8 8 9 8 8 7 7 8 8 8 7 7 6 4 3 2 3 3 3 3 3 3 3 4 3 3 3 4 4 4 4 5 5 6 6 6 6 6 6 6 6 6 6
6 8 8 8 8 7 8 8 8 9 8 8 7 6 5 4 5 4 4 3 3 3 3 3 3 4 3 3 4 5 5 5 6 6 6 7 7 7 6 6 6 6 7
6 8 8 8 7 7 8 7 8 8 8 8 8 7 6 6 4 4 4 3 3 2 2 3 3 3 3 3 4 4 5 5 6 6 7 7 7 7 6 7 7 7 7
7 9 9 9 9 8 8 8 7 7 7 7 8 7 6 5 5 4 4 3 3 3 4 4 3 3 3 3 3 4 4 5 6 6 6 7 7 7 7 7 7 8 8
6 9 9 9 9 8 8 8 7 7 7 7 7 7 6 5 5 5 4 5 4 4 4 4 3 3 3 3 3 4 4 4 5 6 7 7 7 7 8 8 8 8 9
7 8 9 9 8 8 9 8 7 7 7 7 6 7 7 5 5 5 5 5 5 5 4 3 3 2 3 3 4 4 5 5 7 7 7 8 8 8 9 9 9 9 9
7 7 8 9 8 8 9 8 8 8 8 7 7 7 7 6 5 5 5 5 5 5 6 4 3 3 4 4 3 4 5 5 5 7 8 9 9 10 9 9 9 10 10
6 7 7 8 8 8 8 9 9 8 9 9 8 8 8 6 7 5 5 6 6 6 5 6 4 3 4 4 4 4 4 5 6 7 8 9 10 10 10 10 10 10 10
6 6 7 7 8 8 8 8 8 8 8 8 8 8 8 8 8 6 6 6 5 4 5 5 4 3 3 3 4 4 4 5 6 6 8 9 9 10 10 10 10 10 11
6 6 6 7 7 7 7 7 7 8 8 7 7 8 8 8 8 7 6 7 5 5 5 5 4 3 3 3 4 4 4 4 4 5 6 8 8 9 10 10 10 10 11
5 5 5 5 6 5 5 6 6 7 7 7 6 6 7 7 7 6 6 6 6 5 5 5 5 4 4 3 4 4 4 5 5 4 5 6 6 7 7 9 9 10 11
4 5 5 5 5 5 5 6 6 6 6 7 6 6 5 6 6 7 6 7 7 7 6 6 6 6 7 5 4 4 4 4 4 3 4 5 5 6 6 7 8 9 11
4 4 5 5 6 5 6 7 6 6 6 6 6 5 4 5 6 6 6 6 6 6 7 7 7 8 7 6 5 5 5 5 6 3 3 6 5 6 6 7 9 10 10
3 4 4 5 5 5 7 7 7 6 5 5 6 6 6 5 5 5 5 5 5 5 6 6 6 6 5 5 5 5 5 5 4 3 3 4 5 5 6 7 7 8 7
2 3 3 4 5 5 7 7 7 5 4 5 5 5 5 5 6 6 5 5 4 3 3 5 5 4 4 4 4 3 3 4 5 4 3 3 4 4 5 5 5 5 6
2 2 3 3 4 4 6 7 7 4 5 4 4 4 5 5 6 6 6 5 5 4 3 3 3 4 4 5 5 5 5 5 4 4 3 2 3 2 3 3 4 4 6
Wind_Direction
166 162 162 161 162 159 158 155 152 146 143 140 138 135 126 120 117 115 107 89 88 89 92 101 105 110 111 113 114 112 107 98 99 99 97 90 80 75 72 74 73 69 67
172 168 166 165 164 163 159 159 156 149 144 142 138 135 127 125 124 121 115 104 85 80 85 91 95 97 107 109 112 113 113 110 111 112 108 101 89 79 71 71 72 71 68
180 176 171 171 168 165 160 156 153 151 143 143 141 136 128 129 134 129 123 118 110 87 77 81 79 81 93 103 112 109 113 112 115 118 120 110 97 83 72 67 66 66 66
183 179 174 175 170 167 164 160 160 157 155 154 149 140 137 137 147 144 137 131 127 121 97 82 75 62 60 82 103 107 113 123 127 130 123 114 104 86 72 59 58 53 46
185 181 178 173 171 171 171 167 167 166 161 155 148 141 140 142 149 155 146 136 132 135 137 107 95 69 50 38 94 115 123 122 123 133 134 126 113 91 74 56 45 24 19
185 184 179 176 173 173 173 172 167 167 162 154 140 131 136 146 162 167 163 159 153 163 179 177 190 147 127 325 260 322 183 153 133 128 130 141 144 166 228 305 286 293 291
181 183 182 178 180 181 180 175 167 165 161 156 150 146 154 175 194 195 202 202 181 184 206 219 237 238 205 189 162 29 353 177 141 127 129 163 242 275 281 288 273 275 271
183 184 182 181 182 181 180 178 175 173 169 181 180 175 193 199 200 209 214 224 221 208 226 245 244 240 236 217 176 184 248 257 252 256 271 279 284 300 298 285 268 264 277
185 184 184 182 183 183 183 184 185 186 179 184 201 202 202 210 185 188 208 217 220 225 235 243 252 248 239 234 222 215 241 257 258 264 271 277 282 284 284 289 275 267 266
186 183 184 185 183 186 186 187 190 193 187 184 190 222 246 213 204 192 194 209 224 236 240 238 245 245 238 234 232 245 246 250 256 263 267 276 281 286 288 286 285 280 272
187 185 185 184 183 187 189 188 191 196 197 195 190 186 189 199 221 222 220 211 220 231 241 248 245 244 238 241 238 242 244 248 255 264 266 272 279 283 287 293 299 291 283
188 188 187 186 186 187 188 190 194 199 201 201 199 199 200 203 205 213 226 226 237 237 240 247 244 246 242 249 246 244 247 253 259 264 264 269 276 283 291 290 296 301 291
191 191 188 189 189 190 190 190 194 201 204 202 203 208 213 220 214 215 221 229 245 252 242 239 235 239 238 245 242 234 242 251 259 264 267 269 274 278 281 286 288 291 293
196 193 192 192 191 189 187 190 195 199 203 206 208 209 210 213 209 213 217 219 235 244 239 239 227 224 232 235 242 238 236 243 251 258 263 269 270 272 274 279 281 284 286
194 193 193 194 192 189 188 188 195 196 198 206 209 209 212 211 210 215 216 219 226 243 247 234 227 224 235 236 239 248 251 251 253 258 261 264 266 266 267 270 273 277 280
194 192 192 193 192 191 191 192 194 194 196 202 205 207 209 210 208 208 211 218 226 241 250 243 242 245 241 245 242 248 254 258 253 253 257 260 263 264 264 264 267 270 274
193 194 194 193 192 193 193 194 197 194 198 201 202 207 210 207 207 208 210 216 221 227 242 253 248 245 245 248 255 252 254 257 254 251 256 259 261 263 263 262 265 267 269
195 195 193 193 193 195 194 195 197 198 201 203 204 205 209 206 210 211 212 218 222 223 232 242 242 240 248 250 255 257 261 258 259 260 260 263 262 262 262 265 266 268 270
195 194 192 194 195 195 195 199 201 202 205 207 207 207 208 206 211 211 212 218 222 221 227 235 242 240 245 246 252 258 260 263 264 263 265 263 260 260 262 264 265 269 272
192 193 195 196 195 193 195 197 200 202 203 206 211 211 210 210 213 211 213 216 215 215 219 226 234 235 238 240 242 248 259 261 266 265 264 264 263 259 258 259 261 267 271
192 191 192 193 193 193 194 195 198 202 202 203 207 212 214 212 213 212 209 210 207 212 217 223 229 233 233 231 239 243 253 265 267 258 272 267 265 264 258 254 256 266 272
190 188 190 190 193 199 188 191 198 200 203 203 205 208 209 207 209 211 212 212 209 211 217 227 234 235 238 240 244 243 251 262 263 249 269 272 267 267 266 263 269 273 273
192 189 191 194 200 200 186 188 196 199 200 202 203 203 204 206 205 209 206 206 215 223 228 230 235 240 242 237 235 241 244 253 262 272 268 268 271 271 273 269 273 272 272
202 199 197 199 201 199 190 189 189 200 205 205 205 204 203 205 205 202 202 208 219 227 229 231 237 245 248 239 233 243 249 260 271 257 240 261 275 277 284 276 268 264 268
215 212 207 203 202 201 191 188 187 195 199 205 207 206 204 205 194 189 195 204 217 232 227 222 236 241 235 232 232 233 238 250 264 256 235 253 271 285 283 273 265 260 269
216 207 207 208 207 206 189 187 190 192 195 201 202 203 206 206 191 189 198 204 216 224 214 213 218 224 226 222 221 229 233 240 255 253 222 235 264 288 282 275 281 282 277
Height
1545 1547 1548 1550 1552 1553 1555 1557 1559 1560 1561 1562 1564 1565 1566 1567 1568 1568 1569 1569 1570 1570 1570 1570 1570 1570 1569 1569 1569 1569 1568 1568 1568 1568 1568 1568 1568 1568 1567 1567 1567 1567 1566
1543 1545 1547 1548 1550 1552 1554 1556 1557 1559 1560 1562 1563 1564 1565 1566 1567 1568 1568 1569 1569 1569 1570 1570 1570 1569 1569 1569 1568 1568 1568 1567 1567 1567 1567 1568 1567 1567 1567 1567 1567 1566 1566
1541 1543 1545 1546 1548 1550 1552 1554 1556 1558 1559 1561 1562 1563 1565 1565 1567 1567 1568 1568 1569 1569 1569 1569 1569 1569 1569 1568 1568 1567 1567 1566 1566 1567 1567 1567 1567 1567 1567 1567 1566 1566 1566
1539 1541 1542 1544 1546 1548 1550 1552 1554 1556 1558 1560 1561 1562 1563 1564 1566 1566 1567 1567 1568 1568 1568 1568 1568 1568 1568 1568 1567 1567 1566 1566 1566 1566 1566 1566 1566 1566 1566 1566 1566 1565 1565
1536 1538 1540 1542 1544 1546 1549 1551 1553 1555 1556 1558 1560 1561 1562 1563 1564 1565 1566 1566 1567 1567 1567 1567 1567 1567 1567 1567 1567 1567 1566 1566 1566 1566 1566 1566 1565 1565 1565 1565 1565 1564 1564
1533 1536 1538 1540 1542 1544 1546 1548 1551 1553 1555 1556 1558 1560 1561 1562 1563 1564 1564 1565 1565 1565 1566 1566 1566 1566 1566 1566 1566 1566 1565 1565 1565 1565 1565 1565 1564 1564 1564 1564 1563 1563 1563
1530 1533 1535 1537 1539 1542 1544 1546 1548 1551 1552 1554 1557 1558 1560 1560 1561 1562 1562 1563 1563 1563 1564 1564 1564 1564 1564 1564 1565 1565 1564 1564 1564 1564 1564 1564 1563 1563 1563 1562 1562 1561 1561
1527 1530 1532 1535 1537 1539 1541 1543 1546 1548 1550 1552 1554 1557 1559 1560 1559 1560 1560 1561 1561 1562 1562 1562 1562 1563 1563 1563 1563 1563 1563 1563 1563 1563 1562 1562 1562 1562 1561 1561 1560 1560 1559
1524 1527 1529 1532 1534 1536 1538 1540 1543 1545 1547 1549 1552 1554 1556 1557 1557 1558 1558 1558 1559 1559 1560 1560 1560 1561 1561 1561 1561 1561 1561 1561 1561 1561 1561 1561 1560 1560 1559 1559 1558 1558 1557
1521 1523 1526 1528 1531 1533 1535 1538 1540 1542 1545 1546 1549 1551 1553 1554 1555 1556 1556 1556 1557 1557 1558 1558 1558 1558 1558 1559 1559 1559 1559 1559 1559 1559 1559 1558 1558 1557 1557 1556 1556 1555 1555
1517 1520 1522 1525 1527 1530 1532 1535 1537 1539 1541 1543 1545 1547 1549 1550 1552 1553 1554 1554 1555 1555 1555 1556 1556 1556 1556 1556 1556 1556 1556 1556 1556 1556 1556 1556 1555 1555 1554 1554 1553 1552 1552
1513 1516 1519 1521 1524 1526 1529 1531 1534 1536 1538 1540 1542 1544 1546 1547 1549 1550 1551 1551 1552 1553 1553 1553 1553 1553 1553 1554 1554 1554 1553 1553 1553 1553 1553 1553 1552 1552 1551 1551 1550 1549 1549
1509 1512 1515 1517 1520 1523 1525 1528 1530 1532 1535 1537 1538 1540 1542 1544 1546 1547 1548 1549 1549 1550 1550 1550 1550 1551 1551 1551 1551 1551 1551 1550 1550 1550 1550 1549 1549 1549 1548 1547 1547 1546 1545
1506 1508 1511 1514 1516 1519 1521 1524 1526 1528 1531 1533 1535 1537 1538 1540 1542 1544 1545 1546 1547 1547 1547 1547 1547 1547 1548 1548 1547 1547 1547 1547 1547 1546 1546 1546 1546 1545 1545 1544 1543 1542 1541
1502 1504 1507 1509 1512 1515 1517 1520 1522 1524 1527 1529 1531 1533 1535 1536 1538 1540 1541 1543 1544 1544 1544 1544 1544 1544 1544 1544 1544 1544 1544 1543 1543 1543 1543 1542 1542 1541 1541 1540 1539 1539 1538
1498 1500 1503 1505 1508 1510 1513 1515 1518 1520 1522 1524 1526 1529 1530 1532 1534 1535 1537 1539 1540 1541 1540 1540 1540 1541 1541 1541 1541 1540 1540 1540 1539 1539 1539 1538 1538 1537 1536 1536 1535 1534 1533
1494 1496 1499 1501 1503 1506 1508 1511 1513 1516 1518 1520 1522 1524 1526 1528 1529 1531 1532 1534 1535 1536 1536 1536 1537 1537 1537 1537 1537 1537 1536 1536 1535 1535 1535 1534 1534 1533 1532 1531 1530 1529 1529
1490 1492 1495 1497 1499 1502 1504 1507 1509 1511 1513 1515 1517 1519 1521 1523 1525 1526 1527 1529 1530 1531 1532 1532 1532 1532 1533 1533 1533 1533 1532 1532 1531 1531 1530 1530 1529 1528 1527 1527 1526 1525 1524
1486 1488 1490 1492 1495 1497 1499 1502 1504 1506 1508 1510 1512 1514 1516 1518 1519 1521 1522 1524 1525 1526 1527 1527 1527 1528 1528 1528 1528 1528 1528 1527 1527 1526 1526 1525 1524 1524 1523 1522 1521 1520 1519
1481 1484 1486 1488 1490 1492 1495 1497 1500 1502 1504 1506 1508 1509 1511 1513 1514 1516 1517 1519 1520 1521 1522 1523 1523 1523 1523 1523 1524 1523 1523 1523 1522 1522 1521 1520 1519 1519 1518 1517 1516 1515 1514
1477 1480 1482 1484 1486 1488 1490 1493 1495 1497 1499 1501 1503 1505 1506 1508 1510 1511 1512 1514 1515 1516 1517 1518 1518 1518 1518 1518 1519 1518 1518 1518 1517 1517 1516 1515 1515 1513 1513 1512 1511 1510 1508
1473 1476 1477 1479 1482 1484 1486 1489 1491 1493 1495 1496 1498 1500 1502 1503 1505 1506 1508 1509 1511 1511 1512 1513 1513 1513 1513 1514 1514 1514 1513 1513 1512 1512 1511 1510 1510 1508 1508 1507 1505 1504 1503
1469 1471 1473 1475 1477 1479 1482 1484 1486 1489 1490 1492 1493 1495 1497 1498 1500 1501 1503 1504 1505 1506 1507 1508 1508 1508 1508 1509 1509 1509 1508 1508 1507 1507 1506 1504 1504 1503 1502 1501 1500 1499 1498
1466 1467 1469 1471 1473 1475 1477 1480 1482 1484 1486 1488 1489 1491 1492 1494 1495 1497 1498 1498 1500 1501 1502 1502 1503 1503 1503 1504 1504 1504 1504 1503 1502 1502 1501 1499 1499 1498 1497 1496 1495 1493 1492
1462 1464 1465 1467 1469 1471 1473 1475 1477 1479 1481 1483 1485 1487 1488 1489 1491 1492 1493 1494 1494 1495 1497 1497 1497 1497 1498 1498 1499 1499 1498 1498 1497 1496 1496 1495 1493 1492 1491 1490 1489 1488 1487
1459 1460 1462 1464 1465 1467 1469 1471 1473 1475 1476 1478 1480 1482 1483 1485 1486 1487 1488 1489 1490 1491 1492 1492 1492 1492 1492 1492 1493 1493 1493 1493 1492 1491 1491 1491 1489 1488 1485 1484 1484 1483 1481